OE7AOT Weather Reports


Display with metric or nautical units.
time (UTC)temp
F
wind
direction
speed
MPH
gust
MPH
rain 1hr
in
rain 24hr
in
rain mn
in
humidity
%
barometer
mb
20260506134717 78 142 13.0 0.0 0.00 1.11 0.00 26 902.1
20260506131717 76 136 21.0 0.0 0.00 1.11 0.00 27 902.1
20260506124717 76 131 16.0 0.0 0.00 1.11 0.00 28 902.3
20260506121717 74 141 12.0 0.0 0.00 1.11 0.00 30 902.6
20260506114717 75 134 11.0 0.0 0.00 1.11 0.00 29 902.8
20260506111717 74 115 14.0 0.0 0.00 1.11 0.00 30 903.0
20260506104717 72 127 15.0 0.0 0.00 1.11 0.00 32 903.1
20260506101717 70 127 12.0 0.0 0.00 1.11 0.00 34 903.8
20260506094717 67 134 17.0 0.0 0.00 1.11 0.00 37 904.2
20260506091717 67 142 14.0 0.0 0.00 1.11 0.00 37 904.0
20260506084717 64 132 19.0 0.0 0.00 1.11 0.00 41 904.2
20260506081717 61 121 11.0 0.0 0.00 1.11 0.00 49 904.4
20260506071717 57 141 10.0 0.0 0.00 1.11 0.00 57 904.8
20260506061717 50 129 11.0 0.0 0.00 1.11 0.00 71 905.6
20260506044717 47 121 5.0 0.0 0.00 1.11 0.00 76 906.3
20260506041717 46 125 4.0 0.0 0.00 1.11 0.00 76 906.2
20260506034717 46 0 0.0 0.0 0.00 1.11 0.00 76 906.1
20260506031717 47 83 2.0 0.0 0.00 1.11 0.00 75 906.9
20260506024717 47 114 3.0 0.0 0.00 1.11 0.00 74 907.0
20260506021717 46 0 0.0 0.0 0.00 1.11 0.00 74 907.4
20260506014717 47 124 2.0 0.0 0.00 1.11 0.00 72 907.1
20260506011717 48 0 0.0 0.0 0.00 1.11 0.00 70 907.2
20260506004717 48 0 0.0 0.0 0.00 1.11 0.00 68 907.2
20260506001717 49 0 0.0 0.0 0.00 1.11 0.00 67 907.3
20260505234717 49 118 3.0 0.0 0.00 1.11 0.00 65 907.4
20260505231717 50 0 0.0 0.0 0.00 1.11 0.00 63 907.6
20260505224717 51 0 0.0 0.0 0.00 1.11 0.00 61 907.4
20260505221717 51 0 0.0 0.0 0.00 1.11 0.00 59 907.3
20260505214717 52 0 0.0 0.0 0.00 1.11 0.00 58 907.1
20260505211717 54 0 0.0 0.0 0.00 1.11 0.00 55 906.7
20260505204717 55 0 0.0 0.0 0.00 1.11 0.00 53 906.6
20260505201717 57 324 1.0 0.0 0.00 1.11 0.00 51 906.2
20260505194717 59 275 3.0 0.0 0.00 1.11 0.00 48 905.9
20260505191717 62 0 0.0 0.0 0.00 1.11 0.00 44 905.5
20260505184717 63 84 6.0 0.0 0.00 1.11 0.00 40 905.2
20260505181717 66 33 8.0 0.0 0.00 1.11 0.00 38 905.0
20260505174717 73 338 2.0 0.0 0.00 1.11 0.00 33 904.7
20260505171717 76 138 6.0 0.0 0.00 1.11 0.00 29 904.7
20260505164717 76 145 10.0 0.0 0.00 1.11 0.00 30 904.6
20260505161717 70 237 3.0 0.0 0.00 1.11 0.00 39 904.9
20260505151717 67 286 4.0 0.0 0.00 1.11 0.00 40 905.4